Regional Weather Roundup
Issued by NWS Green Bay, WI

Home | Current Version | Previous Version | Graphics & Text | Print | Product List | Glossary Off
Versions: 1 2 3 4 5 6 7 8 9 10 11 12 13 14 15 16 17 18 19 20 21 22 23 24 25 26 27 28 29 30 31 32 33 34 35 36 37 38 39 40 41 42 43 44 45 46 47 48 49 50

000
ASUS43 KGRB 231811
RWRGRB

NORTH-CENTRAL AND NORTHEAST WISCONSIN REGIONAL WEATHER ROUNDUP
NATIONAL WEATHER SERVICE GREEN BAY WI
100 PM CDT SAT SEP 23 2017

WIZ005-009-010>012-018-019-231900-
NORTH CENTRAL WISCONSIN

CITY           SKY/WX    TMP DP  RH WIND       PRES   REMARKS
IRONWOOD       MOSUNNY   83  70  64 S9        29.98F
MANITOWISH WTR NOT AVBL
ARBOR VITAE    SUNNY     85  71  62 SW10G18   30.04S
EAGLE RIVER    MOSUNNY   82  66  57 SW12G18   30.04S
LAND O LAKES   MOSUNNY   85  68  55 S9        30.06S
RHINELANDER    SUNNY     84  69  60 SW13G22   30.06S
PHILLIPS       PTSUNNY   82  71  68 S10       30.03S
ANTIGO         SUNNY     84  66  53 SW12      30.08S
TOMAHAWK       MOSUNNY   84  67  57 SW5       30.06R
MERRILL        SUNNY     86  69  56 SW12      30.06S HX  91
$$

WIZ013-073-231900-
NORTHEAST WISCONSIN

CITY           SKY/WX    TMP DP  RH WIND       PRES   REMARKS
IRON MOUNTAIN  SUNNY     88  64  44 SW15G23   30.02F
MARINETTE      SUNNY     86  70  58 S7        30.05F HX  90
OCONTO         SUNNY     89  69  51 SW8       30.04F HX  93
$$

WIZ017-030-035>037-045-231900-
CENTRAL WISCONSIN

CITY           SKY/WX    TMP DP  RH WIND       PRES   REMARKS
MEDFORD        MOSUNNY   84  68  58 SW10G18   30.05S
WAUSAU         SUNNY     85  66  53 SW12      30.04F
MOSINEE        PTSUNNY   84  66  54 SW14G20   30.07F
MARSHFIELD     SUNNY     86  65  49 SW15G25   30.05F
WISC RAPIDS    MOSUNNY   87  69  54 SW8G17    30.07F HX  91
STEVENS POINT  PTSUNNY   86  66  51 SW15      30.06F
WAUPACA        MOSUNNY   91  67  46 SW13      30.06F HX  94
SHAWANO        SUNNY     89  67  47 SW9G17    30.05F HX  92
CLINTONVILLE   SUNNY     90  64  43 SW12      30.05F HX  91
WAUTOMA        MOSUNNY   89  69  51 SW10      30.06F HX  93
$$

WIZ038-039-048-051-231900-
FOX VALLEY

CITY           SKY/WX    TMP DP  RH WIND       PRES   REMARKS
NWS GREEN BAY  SUNNY     88  70  55 S8        30.07S HX  93
APPLETON       MOSUNNY   88  63  42 SW8       30.07F
OSHKOSH        SUNNY     88  66  48 SW9       30.07F HX  90
FOND DU LAC    SUNNY     88  64  44 SW8       30.08F
$$

WIZ022-050-052-231900-
EAST CENTRAL WISCONSIN

CITY           SKY/WX    TMP DP  RH WIND       PRES   REMARKS
EPHRAIM        FAIR      86  68  55 SW5       30.06F
WASHINGTON ISL FAIR      77  67  72 S8        30.05F
STURGEON BAY   SUNNY     90  66  45 W16       30.06F HX  92
MANITOWOC      SUNNY     86  69  56 SE9       30.08F HX  90
SHEBOYGAN      SUNNY     89  67  47 SW5       30.08F HX  92
$$

LMZ563-521-522-541>543-231900-
LAKESHORE

STATION/POSITION TIME  TEMP    WIND        PRES    VSBY  WAVE
                       AIR SEA DIR/SP/G                  HT/PER
                 (UTC) (F)     (DEG/KT/KT) (MB)    (MI)  (FT/S)
SHEBOYGAN LKSHOR 1800   72     170/ 15/ 16 1018.3F
KEWAUNEE LKSHORE 1748   67     180/ 11/ 12 1017.7F
NORTHPORT PIER   1740   76     150/  8/ 10 1017.6S
N MID LAKE BUOY  1750   69 66  190/ 12/ 14 1018.5F         2/ 4
S GREEN BAY BUOY 1800   74 69  190/  6/  8 1017.5
SISTER BAY LKSHO 1804   89     240/  5/  7   N/A
MENOMINEE LKSHOR 1748   80     160/  7/  9 1017.2F
$$



USA.gov is the U.S. government's official web portal to all federal, state and local government web resources and services.